TimeMST,TemperatureF,Dew PointF,Humidity,Sea Level PressureIn,VisibilityMPH,Wind Direction,Wind SpeedMPH,Gust SpeedMPH,PrecipitationIn,Events,Conditions,WindDirDegrees,DateUTC
12:55 AM,30.9,19.9,64,29.41,10.0,SE,12.7,20.7,N/A,,Overcast,140,2012-12-17 07:55:00
1:31 AM,28.4,24.8,86,29.33,2.5,SE,16.1,-,0.00,Snow,Light Snow,130,2012-12-17 08:31:00
1:38 AM,28.4,24.8,86,29.32,3.0,SE,12.7,-,0.00,Snow,Light Snow,140,2012-12-17 08:38:00
1:51 AM,28.9,25.0,85,29.39,1.8,SSE,13.8,-,0.00,Snow,Light Snow,150,2012-12-17 08:51:00
2:05 AM,28.4,26.6,93,29.31,1.0,SE,13.8,20.7,0.01,Snow,Light Snow,140,2012-12-17 09:05:00
2:17 AM,28.4,26.6,93,29.30,1.2,SSE,12.7,-,0.01,Snow,Light Snow,150,2012-12-17 09:17:00
2:55 AM,28.9,27.0,92,29.36,1.0,SSE,13.8,18.4,0.03,Snow,Light Snow,150,2012-12-17 09:55:00
3:41 AM,28.4,26.6,93,29.28,1.5,SE,12.7,-,0.03,Snow,Light Snow,140,2012-12-17 10:41:00
3:45 AM,28.4,26.6,93,29.28,3.0,SE,15.0,21.9,0.03,Snow,Light Snow,140,2012-12-17 10:45:00
3:55 AM,30.0,27.0,88,29.34,9.0,SE,13.8,-,0.03,,Overcast,140,2012-12-17 10:55:00
4:55 AM,30.2,26.6,86,29.25,10.0,Calm,Calm,-,N/A,,Overcast,0,2012-12-17 11:55:00
5:28 AM,28.4,26.6,93,29.25,10.0,WSW,4.6,-,N/A,,Overcast,250,2012-12-17 12:28:00
5:55 AM,28.9,26.1,89,29.31,5.0,WNW,3.5,-,0.00,Snow,Light Snow,300,2012-12-17 12:55:00
5:58 AM,28.4,26.6,93,29.24,1.8,Calm,Calm,-,0.00,Snow,Light Snow,0,2012-12-17 12:58:00
6:04 AM,28.4,26.6,93,29.24,0.8,Calm,Calm,-,0.01,Snow,Light Snow,0,2012-12-17 13:04:00
6:16 AM,28.4,26.6,93,29.23,1.5,Calm,Calm,-,0.02,Snow,Light Snow,0,2012-12-17 13:16:00
6:20 AM,28.4,26.6,93,29.23,3.0,Calm,Calm,-,0.02,Snow,Light Snow,0,2012-12-17 13:20:00
6:46 AM,28.4,26.6,93,29.21,10.0,Calm,Calm,-,0.02,,Overcast,0,2012-12-17 13:46:00
6:55 AM,28.0,26.1,92,29.29,10.0,North,-9999.0,-,0.02,,Overcast,0,2012-12-17 13:55:00
7:37 AM,28.4,26.6,93,29.22,1.5,SW,8.1,-,0.00,Snow,Light Snow,220,2012-12-17 14:37:00
7:44 AM,28.4,28.4,100,29.22,1.0,SSW,8.1,-,0.01,Snow,Light Snow,210,2012-12-17 14:44:00
7:50 AM,28.4,28.4,100,29.22,1.5,SSW,5.8,-,0.01,Snow,Light Snow,210,2012-12-17 14:50:00
7:55 AM,28.9,28.0,96,29.30,2.0,SSW,5.8,-,0.01,Snow,Light Snow,200,2012-12-17 14:55:00
8:00 AM,28.4,28.4,100,29.22,5.0,SW,4.6,-,0.00,Snow,Light Snow,220,2012-12-17 15:00:00
8:09 AM,28.4,28.4,100,29.22,6.0,SW,6.9,-,0.00,,Overcast,230,2012-12-17 15:09:00
8:55 AM,30.0,28.0,92,29.29,10.0,SW,5.8,-,0.00,,Overcast,230,2012-12-17 15:55:00
9:55 AM,32.0,28.9,88,29.29,10.0,Variable,5.8,-,N/A,,Overcast,0,2012-12-17 16:55:00
10:37 AM,33.8,30.2,87,29.23,7.0,South,11.5,-,N/A,Snow,Light Snow,170,2012-12-17 17:37:00
10:55 AM,35.1,30.9,85,29.30,10.0,South,16.1,-,0.00,,Overcast,170,2012-12-17 17:55:00
11:55 AM,36.0,32.0,86,29.31,10.0,SSE,17.3,-,0.00,,Overcast,160,2012-12-17 18:55:00
12:55 PM,37.9,30.0,73,29.31,10.0,South,15.0,-,0.00,Rain,Light Rain,170,2012-12-17 19:55:00
1:55 PM,37.9,30.0,73,29.35,9.0,South,6.9,-,0.01,Snow,Light Snow,170,2012-12-17 20:55:00
2:55 PM,37.0,27.0,67,29.39,10.0,SSW,17.3,-,0.00,,Overcast,210,2012-12-17 21:55:00
5:24 PM,33.8,28.4,81,29.44,4.0,SW,18.4,25.3,0.00,Snow,Light Snow,220,2012-12-18 00:24:00
5:36 PM,33.8,28.4,81,29.45,2.5,SSW,16.1,25.3,0.00,Snow,Light Snow,200,2012-12-18 00:36:00
5:55 PM,33.1,28.9,85,29.52,2.5,SSW,11.5,25.3,0.00,Snow,Light Snow,200,2012-12-18 00:55:00
6:02 PM,33.8,28.4,81,29.46,7.0,SSW,16.1,24.2,0.00,Snow,Light Snow,200,2012-12-18 01:02:00
6:55 PM,35.1,25.0,67,29.54,10.0,North,-9999.0,-,0.00,,Overcast,0,2012-12-18 01:55:00
7:55 PM,34.0,23.0,64,29.53,10.0,WSW,13.8,25.3,N/A,,Mostly Cloudy,240,2012-12-18 02:55:00
8:55 PM,30.9,25.0,79,29.57,5.0,SW,15.0,23.0,0.00,Snow,Light Snow,230,2012-12-18 03:55:00
9:55 PM,30.9,25.0,79,29.60,10.0,SSW,11.5,-,0.00,,Overcast,210,2012-12-18 04:55:00
10:55 PM,30.0,25.0,82,29.63,10.0,SSW,12.7,-,N/A,,Overcast,200,2012-12-18 05:55:00
11:55 PM,28.9,26.1,89,29.65,10.0,SSE,11.5,-,N/A,,Overcast,160,2012-12-18 06:55:00